Zurück zum Katalog

SL-8 R/B

AktivLEO
NORAD 3048·ROCKET BODY·🇷🇺 Russia

Gestartet Nov 23, 1967 von Plesetsk Cosmodrome

Loading…

Nächste Überflüge (nächste 24 Stunden)

TLE

AktuellSource: Space-Track

Epoche: Sep 14, 2026, 09:58 UTC

1 03048U 67116B   26257.41563619  .00000331  00000-0  69898-4 0  9994
2 03048  74.0071  37.8440 0006106 137.5989 252.5290 14.63472355119092

Verfolge SL-8 R/B in Echtzeit mit AllMySat

Download on the App Store